BREEZE-M R/B

Last updated on Tue Jun 24 2025 00:02:06 GMT+0000 (Coordinated Universal Time)

1 64468U 25131B 25173.80781051 -.00000145 00000+0 00000+0 0 9997 2 64468 1.4224 285.7735 3876101 171.5822 241.3112 1.04440359 39

Satellite not in orbit

BREEZE-M R/B